Regional Weather Roundup
Issued by NWS

Home | Current Version | Previous Version | Text Only | Print | Product List | Glossary Off
Versions: 1 2 3 4 5 6 7 8 9 10 11 12 13 14 15 16 17 18 19 20 21 22 23 24 25 26 27 28 29 30 31 32 33 34 35 36 37 38 39 40 41 42 43 44 45 46 47 48 49 50

000
ASUS44 KMEG 011000
RWRTN
TENNESSEE HOURLY STATE WEATHER ROUNDUP
NATIONAL WEATHER SERVICE MEMPHIS TN
500 AM CDT WED APR 01 2015

TNZ002-004-019-021-049-052-054-088>092-011100-
WEST TENNESSEE

CITY           SKY/WX    TMP DP  RH WIND       PRES   REMARKS
MEMPHIS INTL   PTCLDY    62  56  80 E3        29.97R
NWS MEMPHIS      N/A    N/A N/A N/A MISG        N/A
JACKSON        CLEAR     50  48  93 CALM      30.01R
DYERSBURG      PTCLDY    55  36  47 E3        30.03S
UNION CITY     CLEAR     45  45 100 CALM      30.02R
PARIS          CLEAR     52  34  50 SE5       30.04R
LEXINGTON      CLEAR     52  37  58 CALM      30.03R
SAVANNAH       CLOUDY    52  52 100 CALM      30.03R VSB 1/4
$$

TNZ008-025-027-028-033-062-065-066-011100-
NORTH MIDDLE TENNESSEE

CITY           SKY/WX    TMP DP  RH WIND       PRES   REMARKS
NASHVILLE      CLEAR     50  36  58 NE6       30.04S
CLARKSVILLE    CLEAR     43  38  82 E5        30.04S
COOKEVILLE     CLEAR     37  34  87 CALM        N/A
CROSSVILLE     CLEAR     47  31  53 NE3       30.04R
$$

TNZ061-075-076-078-094-096-097-011100-
SOUTH MIDDLE TENNESSEE

CITY           SKY/WX    TMP DP  RH WIND       PRES   REMARKS
FAYETTEVILLE   PTCLDY    52  50  93 CALM      30.02R
TULLAHOMA      CLEAR     48  43  81 CALM      30.03R
WINCHESTER     CLEAR     54  45  71 CALM      30.02R
COLUMBIA       CLEAR     50  43  76 CALM      30.02R
SHELBYVILLE    CLEAR     48  43  81 E3        30.03R
$$

TNZ017-018-042-046-047-011100-
NORTHEAST TENNESSEE

CITY           SKY/WX    TMP DP  RH WIND       PRES   REMARKS
TRI CITIES     CLEAR     44  36  73 N7        30.02R
ELIZABETHTON   SUNNY     36  32  87 CALM      30.01R
$$

TNZ012-013-036-069-073-074-011100-
CENTRAL EAST TENNESSEE

CITY           SKY/WX    TMP DP  RH WIND       PRES   REMARKS
KNOXVILLE      CLEAR     51  33  50 N7        30.00R
OAK RIDGE      CLEAR     50  33  52 NE3       30.04R
GATLINBURG     SUNNY     43  37  81 CALM      30.01R
$$

TNZ083-085-099-011100-
SOUTHEAST TENNESSEE

CITY           SKY/WX    TMP DP  RH WIND       PRES   REMARKS
CHATTANOOGA    MOCLDY    57  50  77 N6        30.00R
$$

SKY/WX REPORTED AS FAIR MEANS FEW OR NO CLOUDS BELOW
12 THOUSAND FEET.



USA.gov is the U.S. government's official web portal to all federal, state and local government web resources and services.